Regional Weather Roundup
Issued by NWS

Home | Current Version | Previous Version | Graphics & Text | Print | Product List | Glossary On
Versions: 1 2 3 4 5 6 7 8 9 10 11 12 13 14 15 16 17 18 19 20 21 22 23 24 25 26 27 28 29 30 31 32 33 34 35 36 37 38 39 40 41 42 43 44 45 46 47 48 49 50
563
ASUS43 KLSX 261307
RWRMO

WEATHER SUMMARY FOR MISSOURI
NATIONAL WEATHER SERVICE SPRINGFIELD MO
800 AM CDT TUE JUL 26 2016

NOTE: "FAIR" INDICATES FEW OR NO CLOUDS BELOW 12,000 FEET WITH NO
       SIGNIFICANT WEATHER AND/OR OBSTRUCTIONS TO VISIBILITY.
       CURRENT SKY AND/OR WEATHER CONDITIONS ARE NOT AVAILABLE FOR
       CHILLICOTHE AND FARMINGTON.

MOZ001>031-035>038-043-044-053-054-261400-
...NORTHERN AND WESTERN MISSOURI...

CITY           SKY/WX    TMP DP  RH WIND       PRES   REMARKS
KANSAS CTY INT MOSUNNY   73  68  84 E7        30.08R
KANSAS C DTWN  SUNNY     76  69  79 NE5       30.07R
LEE`S SUMMIT   SUNNY     74  69  85 NE7       30.08R
ST JOSEPH      SUNNY     70  66  87 CALM      30.08S
CHILLICOTHE      N/A     73  68  84 N3        30.09S
KIRKSVILLE     SUNNY     72  66  81 NE5       30.09S

$$
MOZ066>068-077>081-088>096-101>105-261400-
...SOUTHWEST MISSOURI...

CITY           SKY/WX    TMP DP  RH WIND       PRES   REMARKS
SPRINGFIELD    PTSUNNY   77  72  84 NE5       30.05R
JOPLIN         CLOUDY    75  73  93 NE5       30.03S
BRANSON        PTSUNNY   73  72  94 CALM      30.06S

$$
MOZ032>034-039>042-045>050-055>058-069>072-261400-
...CENTRAL MISSOURI...

CITY           SKY/WX    TMP DP  RH WIND       PRES   REMARKS
COLUMBIA       CLOUDY    73  70  90 NE6       30.07R
JEFFERSON CITY CLOUDY    73  70  90 SE3       30.06R
ROLLA          CLOUDY    74  70  87 E5        30.05S
SEDALIA        SUNNY     75  71  87 NE5       30.08R
OSAGE BEACH    PTSUNNY   74  71  91 NE6       30.06S

$$
MOZ051-052-059>065-261400-
...EAST CENTRAL MISSOURI...

CITY           SKY/WX    TMP DP  RH WIND       PRES   REMARKS
ST LOUIS INTL  CLOUDY    78  72  81 NE5       30.04S
SPIRIT OF STL  MOSUNNY   77  74  90 N3        30.03R
ST CHARLES     PTSUNNY   77  73  87 E6        30.03S

$$
MOZ072>076-082>087-097>100-106>115-261400-
...SOUTH CENTRAL AND SOUTHEAST MISSOURI...

CITY           SKY/WX    TMP DP  RH WIND       PRES   REMARKS
CAPE GIRARDEAU FOG       76  75  97 CALM      30.02S VSB 3/4
FARMINGTON     PTSUNNY   75  73  93 SE3       30.06S
POPLAR BLUFF   MOSUNNY   78  75  90 CALM      30.02F
WEST PLAINS    CLOUDY    76  72  87 VRB3      30.07S

$$



USA.gov is the U.S. government's official web portal to all federal, state and local government web resources and services.